Aurora, IL

5:55 AM CDT on May 24, 2017 (GMT -0500)
Aurora Municipal

Weather History for KARR - October, 2012

Change the Weather History Date:

Monday, October 22, 2012

  Actual Average Record
Temperature  
Mean Temperature 57 °F 49 °F  
Max Temperature 64 °F 60 °F 68 °F (2000)
Min Temperature 49 °F 37 °F 23 °F (2013)
Degree Days  
Heating Degree Days 8 16  
Month to date heating degree days 332 291  
Since 1 July heating degree days 531 444  
Cooling Degree Days 0 0  
Month to date cooling degree days 0 9  
Year to date cooling degree days 1004 656  
Growing Degree Days 6 (Base 50)    
Moisture  
Dew Point 58 °F    
Average Humidity 93    
Maximum Humidity 100    
Minimum Humidity 86    
Precipitation  
Precipitation 0.42 in 0.10 in 1.21 in (2009)
Month to date precipitation 3.36 2.24  
Year to date precipitation 21.14 30.88  
Sea Level Pressure  
Sea Level Pressure 29.92 in    
Wind  
Wind Speed 6 mph (SE)    
Max Wind Speed 15 mph    
Max Gust Speed 22 mph    
Visibility 6 miles    
Events Rain , Thunderstorm    
T = Trace of Precipitation, MM = Missing Value Source: NWS Daily Summary

Daily Weather History Graph

Daily Weather History Graph

Search for Another Location

Airport or City:

Trip Planner

Search our weather history database for the weather conditions in past years. The results will help you decide how hot, cold, wet, or windy it might be!

Date:

Astronomy

Oct. 22, 2012 Rise Set
Actual Time 7:14 AM CDT 6:01 PM CDT
Civil Twilight 6:46 AM CDT 6:29 PM CDT
Nautical Twilight 6:13 AM CDT 7:01 PM CDT
Astronomical Twilight 5:41 AM CDT 7:34 PM CDT
Moon 2:14 PM CDT (10/22) No Moon Set
Length of Visible Light 11h 43m
Length of Day
10h 46m
First Quarter, 56% of the Moon is Illuminated
Oct 22
First Quarter
Oct 29
Full
Nov 6
Last Quarter
Nov 13
New
Nov 20
First Quarter

Hourly Weather History & Observations

Time (CDT) Temp. Dew Point Humidity Pressure Visibility Wind Dir Wind Speed Gust Speed Precip Events Conditions
12:52 AM 50.0 °F 46.9 °F 89% 29.98 in 10.0 mi East 3.5 mph - N/A   Clear
1:52 AM 50.0 °F 46.9 °F 89% 29.97 in 9.0 mi ESE 3.5 mph - N/A   Clear
2:52 AM 51.1 °F 48.0 °F 89% 29.96 in 9.0 mi East 5.8 mph - N/A   Clear
3:52 AM 50.0 °F 48.0 °F 93% 29.96 in 9.0 mi ESE 4.6 mph - N/A   Clear
4:52 AM 50.0 °F 48.9 °F 96% 29.94 in 8.0 mi East 4.6 mph - N/A   Clear
7:13 AM 53.6 °F 51.8 °F 94% 29.94 in 7.0 mi East 6.9 mph - N/A   Mostly Cloudy
7:44 AM 55.4 °F 53.6 °F 94% 29.95 in 7.0 mi SE 4.6 mph - N/A   Overcast
8:52 AM 57.0 °F 54.0 °F 89% 29.96 in 8.0 mi SE 5.8 mph - N/A   Overcast
9:52 AM 59.0 °F 55.9 °F 90% 29.96 in 10.0 mi SE 4.6 mph - N/A   Overcast
10:49 AM 59.0 °F 57.2 °F 94% 29.97 in 4.0 mi SSE 8.1 mph - 0.03 in Rain , Thunderstorm Light Rain
10:52 AM 59.0 °F 57.0 °F 93% 29.97 in 4.0 mi SSE 9.2 mph - 0.03 in Rain , Thunderstorm Light Rain
11:37 AM 60.8 °F 59.0 °F 94% 29.90 in 2.5 mi East 6.9 mph - 0.10 in Rain Rain
11:46 AM 60.8 °F 60.8 °F 100% 29.90 in 3.0 mi Calm Calm - 0.12 in Rain Rain
12:05 PM 60.8 °F 59.0 °F 94% 29.89 in 9.0 mi SE 11.5 mph - 0.00 in   Mostly Cloudy
12:37 PM 60.8 °F 59.0 °F 94% 29.91 in 6.0 mi South 9.2 mph - 0.00 in   Mostly Cloudy
12:52 PM 60.1 °F 59.0 °F 96% 29.94 in 6.0 mi South 11.5 mph - 0.00 in   Overcast
1:15 PM 60.8 °F 59.0 °F 94% 29.93 in 9.0 mi South 11.5 mph - N/A   Scattered Clouds
1:52 PM 62.1 °F 60.1 °F 93% 29.93 in 10.0 mi South 12.7 mph 21.9 mph N/A   Mostly Cloudy
2:09 PM 62.6 °F 60.8 °F 94% 29.92 in 10.0 mi South 10.4 mph - N/A   Overcast
2:39 PM 62.6 °F 60.8 °F 94% 29.91 in 10.0 mi South 10.4 mph - N/A   Overcast
3:25 PM 62.6 °F 60.8 °F 94% 29.90 in 8.0 mi SSE 8.1 mph - 0.00 in Rain Light Rain
3:52 PM 63.0 °F 61.0 °F 93% 29.90 in 10.0 mi SSE 6.9 mph - 0.01 in Rain Light Rain
4:52 PM 63.0 °F 61.0 °F 93% 29.90 in 5.0 mi South 9.2 mph - N/A   Overcast
5:32 PM 62.6 °F 60.8 °F 94% 29.89 in 8.0 mi South 10.4 mph - N/A   Overcast
6:52 PM 63.0 °F 62.1 °F 97% 29.90 in 7.0 mi South 8.1 mph - N/A   Overcast
7:43 PM 62.6 °F 62.6 °F 100% 29.90 in 6.0 mi South 8.1 mph - 0.00 in   Overcast
8:52 PM 62.1 °F 61.0 °F 96% 29.90 in 4.0 mi NW 5.8 mph - N/A   Overcast
9:06 PM 62.6 °F 60.8 °F 94% 29.90 in 3.0 mi NW 3.5 mph - N/A   Overcast
9:21 PM 60.8 °F 60.8 °F 100% 29.91 in 2.5 mi NNW 4.6 mph - N/A   Overcast
9:52 PM 62.1 °F 62.1 °F 100% 29.91 in 3.0 mi Calm Calm - N/A   Overcast
9:59 PM 62.6 °F 60.8 °F 94% 29.91 in 2.5 mi Calm Calm - N/A   Overcast
10:21 PM 62.6 °F 62.6 °F 100% 29.91 in 2.0 mi Calm Calm - N/A Thunderstorm Overcast
10:40 PM 62.6 °F 60.8 °F 94% 29.91 in 1.0 mi ENE 5.8 mph - 0.19 in Rain , Thunderstorm Heavy Thunderstorms and Rain
11:00 PM 62.6 °F 62.6 °F 100% 29.91 in 2.0 mi ENE 3.5 mph - 0.00 in   Overcast
11:10 PM 62.6 °F 62.6 °F 100% 29.92 in 2.0 mi Calm Calm - 0.00 in Thunderstorm Overcast
11:23 PM 62.6 °F 60.8 °F 94% 29.91 in 1.8 mi ESE 3.5 mph - 0.00 in Thunderstorm Overcast
11:52 PM 62.1 °F 62.1 °F 100% 29.91 in 2.0 mi East 3.5 mph - 0.00 in   Overcast